Location: Roanoke
(37.2710°N, 79.9420°W)
Time: 23:59:55
(UTC-04:00)

Daily predictions for brighter satellites

Satellite Brightness Start Highest point End
(mag) Time Altitude Azimuth Time Altitude Azimuth Time Altitude Azimuth
H-2A R/B 2.9 21:12:06 10° SE 21:16:17 39° ENE 21:20:30 10° N
USA 229 DEB 3.8 21:11:29 10° SSW 21:18:15 61° ESE 21:25:07 10° NE
USA 229 3.8 21:11:36 10° SSW 21:18:22 60° ESE 21:25:13 10° NE
Cosmos 540 Rocket 4.0 21:14:56 10° NNW 21:20:04 63° WSW 21:25:08 10° S
Cosmos 1441 Rocket 3.4 21:17:40 10° S 21:21:18 47° E 21:24:56 10° NNE
Cosmos 1328 Rocket 3.8 21:17:02 10° N 21:21:24 54° E 21:25:44 10° SSE
Cosmos 1655 Rocket 4.3 21:18:17 10° SSW 21:24:29 74° W 21:30:43 10° N
S3M 4.0 21:19:45 10° N 21:25:51 68° E 21:31:56 10° SSE
Cosmos 2322 Rocket 2.2 21:20:16 10° NNW 21:25:54 78° ENE 21:31:31 10° SSE
Cosmos 2228 Rocket 3.2 21:28:08 10° N 21:32:38 85° W 21:37:08 10° S
Cosmos 1743 Rocket 3.7 21:29:14 10° S 21:33:42 83° W 21:38:11 10° N
Cosmos 2292 4.3 21:32:09 10° N 21:35:08 60° E 21:38:22 10° SSE
Cosmos 1980 Rocket 3.8 21:30:19 10° NW 21:35:18 32° WSW 21:40:16 10° SSW
SL-16 R/B 2.2 21:30:14 10° NNW 21:35:56 88° ENE 21:41:37 10° SSE
Cosmos 2360 Rocket 3.1 21:30:56 10° N 21:36:02 34° ENE 21:40:35 12° ESE
In-Cosmos 22 4.3 21:31:49 10° S 21:37:36 87° W 21:43:23 10° N
Cosmos 968 Rocket 3.9 21:33:09 10° SSW 21:38:17 66° WNW 21:43:30 10° NNE
Cosmos 1500 Rocket 3.5 21:35:45 10° S 21:40:06 78° E 21:44:30 10° N
ATLAS CENTAUR R/B 2.5 21:37:32 10° NW 21:41:44 40° WSW 21:45:34 10° S
Cosmos 1908 3.7 21:39:33 10° N 21:43:17 43° E 21:46:18 15° SSE
Cosmos 371 Rocket 3.7 21:42:13 10° NNW 21:46:58 63° WSW 21:51:42 10° S
deb Chang Zheng 4 3.7 21:44:28 10° N 21:48:48 77° WNW 21:53:08 10° SSW
ALOS 4.2 21:46:32 10° SSW 21:50:29 27° W 21:54:28 10° NW
USA 186 4.3 21:50:46 10° WSW 21:51:26 11° W 21:52:06 10° WNW
Cosmos 1939 Rocket 2.8 21:47:30 10° SSE 21:51:28 88° WSW 21:55:24 10° NNW
DELTA 2 R/B(2) 3.0 21:53:40 10° WSW 21:55:16 79° NNW 21:57:18 12° ENE
Delta 2 Rocket 3.0 21:52:13 10° WSW 21:55:40 49° SSE 21:58:00 17° E
Cosmos 1674 2.6 21:53:57 10° S 21:57:45 76° E 22:01:36 10° N
Envisat 3.0 21:53:30 11° SSE 21:58:22 86° ENE 22:03:28 10° NNW
SPOT 5 2.8 21:55:18 15° SSE 21:58:55 66° ENE 22:03:37 10° N
GPS 2-04 Rocket1 4.2 21:57:03 10° W 22:00:43 26° SSW 22:02:52 18° SSE
Cosmos 1833 4.3 21:58:59 10° SSW 22:04:42 86° WNW 22:10:25 10° NNE
ERS-1 Rocket 3.9 22:00:25 10° S 22:05:13 46° W 22:10:05 10° NNW
Meteor 2-2 Rocket 4.4 22:00:20 10° N 22:06:21 84° W 22:12:06 11° S
Tiangong 1 2.2 22:04:54 10° SSW 22:07:00 25° SSE 22:07:00 25° SSE
Cosmos 2333 Rocket 4.4 22:06:59 10° NNE 22:09:28 13° NE 22:11:57 10° ENE
Cosmos 2112 Rocket 4.4 22:04:43 10° N 22:09:47 48° ENE 22:12:50 23° SE
Cosmos 1300 4.0 22:06:40 10° NNE 22:09:54 25° ENE 22:11:00 22° ESE
Cosmos 1437 Rocket 3.0 22:06:13 10° NNW 22:09:59 64° W 22:13:01 15° S
Cosmos 1515 Rocket 4.3 22:05:45 10° NNW 22:10:04 53° W 22:14:20 10° S
USA 245 3.5 22:10:34 26° E 22:10:48 27° ENE 22:12:57 10° NNE
Cosmos 1437 2.6 22:08:49 19° S 22:11:01 73° E 22:14:18 10° NNE
DELTA 2 R/B (1) 3.6 22:06:32 10° WNW 22:12:07 84° N 22:16:24 17° ESE
PSLV R/B 3.3 22:16:12 27° S 22:17:42 71° WSW 22:20:47 10° NNW
Cosmos 2266 Rocket 4.3 22:14:35 10° SSW 22:20:54 71° W 22:27:07 10° N
Sich 1 3.8 22:20:01 27° SE 22:21:22 33° E 22:25:20 10° NNE
Cosmos 2315 Rocket 4.0 22:15:21 10° N 22:21:32 66° E 22:25:34 22° SSE
COSMOS 2428 3.5 22:16:34 10° N 22:21:52 38° ENE 22:24:46 23° ESE
Cosmos 1633 Rocket 3.9 22:21:04 27° ESE 22:22:14 32° E 22:26:09 10° NNE
Cosmos 2151 3.0 22:18:32 12° S 22:22:21 78° W 22:26:34 10° N
YAOGAN 6 2.5 22:23:27 32° SSE 22:25:01 79° ENE 22:28:39 10° N
Cosmos 405 3.6 22:22:06 10° NNW 22:25:39 55° W 22:27:43 22° SSW
NOSS 3-1 (C) 3.3 22:20:03 10° SSW 22:25:43 60° ESE 22:31:56 10° NE
Cosmos 2297 Rocket 4.2 22:28:39 11° E 22:28:39 11° E 22:29:34 10° ENE
CZ-4C R/B 4.2 22:29:16 26° E 22:29:43 27° ENE 22:32:41 10° NNE
Cosmos 304 Rocket 3.7 22:24:53 10° NNW 22:29:44 88° WSW 22:32:12 29° SSE
Cosmos 1328 3.9 22:28:08 18° SSW 22:31:01 72° W 22:34:58 10° N
H-2A R/B 3.2 22:29:35 23° ESE 22:31:46 32° ENE 22:36:29 10° N
Cosmos 1151 Rocket 3.9 22:31:33 10° NNW 22:35:41 46° W 22:38:40 18° SSW
Cosmos 1805 Rocket 3.5 22:33:35 25° S 22:36:09 84° E 22:40:37 10° N
MetOp-A 4.4 22:33:52 20° S 22:37:32 65° WSW 22:42:52 10° NNW
Cosmos 2219 Rocket 3.5 22:33:41 10° N 22:38:21 26° ENE 22:40:43 20° E
ARGOS 3.1 22:37:03 30° SSE 22:39:48 75° ENE 22:45:12 10° N
Landsat 7 4.3 22:39:24 33° ESE 22:40:57 44° ENE 22:45:29 10° N
SWAS 4.4 22:37:08 10° NNW 22:41:28 79° ENE 22:42:49 43° SE
Cosmos 1244 Rocket 4.4 22:37:11 19° S 22:41:55 82° E 22:48:14 10° N
Cosmos 2237 4.3 22:37:54 10° NNW 22:43:37 63° ENE 22:46:02 34° SE
SPOT 1/Viking Rocket 3.5 22:41:06 29° S 22:43:47 83° WSW 22:48:58 10° NNW
Cosmos 1680 Rocket 3.8 22:41:48 10° NNW 22:47:00 64° WSW 22:49:36 29° S
Cosmos 2058 3.2 22:46:01 25° SSW 22:48:16 64° W 22:52:22 10° N
CZ-4B R/B 4.2 22:48:37 10° N 22:53:47 57° WNW 22:58:43 11° SSW
Cosmos 2219 3.7 22:49:18 10° SSW 22:54:59 62° WNW 23:00:42 10° NNE
Cosmos 1707 Rocket 3.5 22:52:25 10° N 22:56:47 79° W 22:58:04 45° S
Terra 2.3 22:55:46 38° ESE 22:56:49 45° ENE 23:01:21 10° N
SL-14 R/B 3.3 22:56:57 45° SSW 22:58:04 75° W 23:02:03 10° N
Cosmos 1666 Rocket 3.6 22:56:36 36° SSW 22:58:21 75° W 23:02:47 10° N
Cosmos 1703 3.4 22:58:43 55° E 22:58:43 55° E 23:02:32 10° NNE
Cosmos 1898 Rocket 3.3 22:56:18 31° S 22:58:52 82° ESE 23:04:05 10° NNE
Cosmos 1745 Rocket 4.1 22:57:28 36° SSE 22:59:53 59° E 23:05:57 10° NNE
Cosmos 2150 Rocket 4.0 22:57:10 27° SSW 23:00:17 86° ESE 23:05:47 10° NNE
SL-08 R/B 4.4 22:58:30 34° S 23:01:20 72° E 23:07:35 10° N
Cosmos 1726 2.0 22:58:39 10° N 23:02:26 85° W 23:02:46 73° SSW
Meteor 1-27 4.2 22:57:07 10° NNW 23:02:48 78° W 23:05:11 36° S
Meteor 2-11 Rocket 4.4 22:57:02 10° N 23:03:12 82° W 23:06:04 34° S
Cosmos 1271 Rocket 2.9 22:59:30 10° N 23:03:14 54° ENE 23:03:14 54° ENE
Cosmos 2333 4.3 22:58:06 10° NNW 23:03:50 68° ENE 23:05:40 43° SE
Cosmos 858 Rocket 4.4 23:04:03 34° SSW 23:06:23 87° ESE 23:11:37 10° NNE
Cosmos 2237 Rocket 3.4 23:01:56 10° N 23:06:56 30° ENE 23:08:42 25° E
Cosmos 2082 4.1 23:07:20 40° ESE 23:07:44 40° ESE 23:13:02 10° NE
Cosmos 1470 Rocket 3.6 23:11:47 56° E 23:11:47 56° E 23:16:00 10° NNE
Cosmos 220 Rocket 3.9 23:12:13 69° SE 23:12:26 71° ESE 23:16:51 10° NNE
OAO 2 Rocket 3.8 23:07:21 10° WSW 23:11:37 44° SSW 23:11:37 44° SSW
Cosmos 1933 Rocket 3.7 23:13:06 57° E 23:13:10 57° E 23:17:33 10° NNE
DMSP B5D2-2 4.0 23:08:44 10° NNE 23:13:57 71° ESE 23:15:09 52° SSE
Iridium 2 3.6 23:14:54 81° NE 23:14:54 81° NE 23:18:37 10° N
IGS 5A 3.5 23:14:41 61° E 23:14:49 62° ENE 23:18:57 10° N
SeaSat 1 4.2 23:15:33 17° ENE 23:17:08 20° NE 23:20:40 10° N
Cosmos 2360 Rocket 3.5 23:15:01 10° NW 23:19:54 31° WSW 23:22:22 22° SW
NOSS 3-1 (A) 3.8 23:22:48 10° SW 23:28:35 63° NW 23:34:59 10° NNE
Cosmos 1386 Rocket 4.3 23:27:31 52° SSE 23:29:00 74° E 23:35:00 10° N
NOSS 0 Rocket 4.0 23:25:45 10° NNW 23:31:52 66° ENE 23:33:19 50° ESE
USA 32 4.4 23:27:27 10° NNW 23:32:38 59° W 23:34:01 44° SW
Meteor 2-10 4.2 23:27:13 10° N 23:32:57 83° W 23:34:15 56° S
Meteor 1-4 Rocket 3.4 23:30:52 10° NNW 23:34:10 46° WNW 23:34:10 46° WNW
Cosmos 2242 Rocket 4.3 23:34:17 10° NNW 23:38:33 45° W 23:39:06 43° WSW
Cosmos 1626 2.9 23:40:11 51° N 23:40:11 51° N 23:43:04 10° N
Cosmos 2227 Rocket 2.1 23:42:28 61° SSW 23:43:33 87° ESE 23:49:14 10° NNE
ATLAS 2AS CENTAUR R/B 2.8 23:48:09 44° SSW 23:50:50 75° ESE 23:58:49 10° NE
Cosmos 1862 Rocket 3.8 23:50:53 10° NNW 23:54:47 63° NW 23:54:47 63° NW
